Location: Amon Carter Post Office
(32.8281°N, 97.0484°W)
Time: 06:54:40
(UTC+00:00)

CZ-2C R/B - Pass Details

Date: 28 June 2022
Orbit: 783 x 871 km, 98.2° (Epoch: 11 August)

Event Time Altitude Azimuth Distance (km) Brightness Sun altitude
Rises 09:54:34 0° 130° (SE) 3,383 5.9 -15.9°
Reaches altitude 10° 09:57:26 10° 114° (ESE) 2,466 5.4 -15.5°
Maximum altitude 10:01:27 21° 67° (ENE) 1,821 5.4 -14.8°
Drops below altitude 10° 10:05:31 10° 20° (NNE) 2,507 6.1 -14.2°
Sets 10:08:27 0° 5° (N) 3,456 6.6 -13.7°
